Preview of NWS' New Version of Forecast
This preview is not operational and should not be used for support decisions.

Regional Weather Roundup (RWR)

Issued by National Weather Service (NWS)

                            
000
ASUS46 KPQR 220210
RWROR 

OREGON REGIONAL WEATHER ROUNDUP
NATIONAL WEATHER SERVICE PORTLAND OR
600 PM PST THU FEB 21 2019

NOTE: "FAIR" INDICATES FEW OR NO CLOUDS BELOW 12,000 FEET WITH
NO SIGNIFICANT WEATHER AND/OR OBSTRUCTIONS TO VISIBILITY.

ORZ001>013-220300-
NORTHWEST OREGON

  
CITY           SKY/WX    TMP DP  RH WIND       PRES   REMARKS
ASTORIA        PTCLDY    40  32  73 NW6       30.11R                  
TILLAMOOK      PTCLDY    43  34  70 SW3       30.13R                  
NEWPORT        CLEAR     43  34  70 CALM      30.14R                  
PORTLAND       PTCLDY    46  25  43 CALM      30.11S                  
VANCOUVER WA   CLEAR     45  25  45 CALM      30.11S                  
SCAPPOOSE      CLEAR     38  30  73 W5        30.11S                  
HILLSBORO      CLEAR     43  24  47 NE3       30.10S                  
AURORA         CLEAR     42  26  53 NE3       30.11S                  
MCMINNVILLE    CLEAR     43  25  49 N3        30.10S                  
SALEM          CLEAR     43  26  51 NE5       30.10R                  
CORVALLIS      CLEAR     43  29  57 N6        30.11R                  
EUGENE         PTCLDY    41  31  67 N8        30.09S                  
$$

ORZ021-028-220300-
SOUTHWEST OREGON

  
CITY           SKY/WX    TMP DP  RH WIND       PRES   REMARKS
NORTH BEND     MOCLDY    45  35  68 N12       30.11R                  
BROOKINGS      CLEAR     46  26  45 NE9       30.01S                  
ROSEBURG       CLEAR     43  28  55 N6        30.07S                  
SEXTON SUMMIT  PTCLDY    25  23  92 N8        29.93R                  
GRANTS PASS    FAIR      39  28  65 N8        30.05                   
MEDFORD        PTCLDY    42  27  55 W8        30.00R                  
$$

ORZ014>016-041-220300-
COLUMBIA GORGE

  
CITY           SKY/WX    TMP DP  RH WIND       PRES   REMARKS
TROUTDALE      CLEAR     41  25  53 E6        30.11S                  
HOOD RIVER     CLEAR     34  27  75 CALM      30.12R                  
THE DALLES     CLEAR     32  25  75 E7        30.15R                  
$$

ORZ029>031-041-044-049-050-061>064-502-503-505>511-220300-
EASTERN OREGON

  
CITY           SKY/WX    TMP DP  RH WIND       PRES   REMARKS
MADRAS         NOT AVBL                                               
REDMOND        MOCLDY    29  19  66 N3        30.01R                  
BEND           CLOUDY    28  19  69 N5        30.00R                  
PRINEVILLE     CLOUDY    28  18  64 N6        30.00                   
KLAMATH FALLS  PTCLDY    27  13  55 NE14      29.91R WCI  16          
LAKEVIEW       LGT SNOW  22  16  78 N9        29.89R                  
HERMISTON      CLEAR     25  20  81 NE6       30.14S                  
PENDLETON      MOCLDY    28  23  81 NW8       30.09R                  
JOHN DAY       CLOUDY    26  17  67 W6        29.96                   
MEACHAM        CLOUDY    20  15  81 CALM      29.96S                  
LA GRANDE      CLEAR     25  19  78 NW18      30.00R WCI  11          
BAKER CITY     CLEAR     25  18  74 NW7       29.94R                  
BURNS          MOCLDY    24  13  62 NW15      29.90R WCI  11          
ROME             N/A     25  18  74 NE8       29.86R                  
ONTARIO        CLEAR     33  21  61 NW12      29.96S WCI  24          
$$